Location: Aufkirchen
(47.9603°N, 11.3653°E)
Time: 15:03:47
(UTC+01:00)

Transit 2A Rocket - Pass Details

Date: 08 December 2020
Orbit: 592 x 910 km, 66.7° (Epoch: 21 January)

Event Time Altitude Azimuth Distance (km) Brightness Sun altitude
Rises 23:04:41 0° 187° (S) 3,496 - -62.0°
Reaches altitude 10° 23:07:24 10° 180° (S) 2,534 - -62.2°
Maximum altitude 23:12:45 37° 114° (ESE) 1,285 - -62.7°
Drops below altitude 10° 23:17:48 10° 49° (NE) 2,388 - -63.0°
Sets 23:20:17 0° 41° (NE) 3,271 - -63.2°
